Home   Weather   Höxter   Past weeks

Flag for Germany Past Weather in Höxter, North Rhine-Westphalia, Germany — Yesterday and Last 2 Weeks

Now
32 °F

Clear.


Feels Like: 26 °F
Forecast: 29 / 41 °F
Wind: 6 mph from Southeast

Location: Kassel / Calden

Current Time: Dec 7, 2016 at 9:39:38 pm

Latest Report: Dec 7, 2016 at 8:20 pm


Visibility: 4 mi

Pressure: 30.48 "Hg

Humidity: 100%

Dew Point: 32 °F

Location of HöxterLocation

Past Weather in Höxter — Graph

°F

Höxter Temperature Yesterday

Maximum temperature yesterday: 27 °F (at 9:50 am)
Minimum temperature yesterday: 25 °F (at 7:20 am)
Average temperature yesterday: 26 °F

High & Low Weather Summary for the Past Weeks

 TemperatureHumidityPressure
High54 °F (Nov 23, 12:50 pm)100% (Nov 23, 7:20 am)30.57 "Hg (Nov 23, 7:20 am)
Low16 °F (Dec 4, 7:20 am)17% (Dec 3, 10:20 am)29.95 "Hg (Nov 22, 7:20 pm)
Average34 °F90%30.27 "Hg
* Reported Nov 22 7:20 pm — Dec 7 7:50 pm, Höxter, Weather by CustomWeather, © 2016

Note: Actual official high and low records may vary slightly from our data, if they occured in-between our weather recording intervals... More about our weather records

Advertising

Höxter Weather History for the Previous 24 Hours

Scroll right to see more
 ConditionsComfort  
Time TempWeatherWind HumidityBarometerVisibility
7:50 pm
Wed, Dec 7
32 °FLight freezing rain. Passing clouds.8 mph100%30.45 "Hg4 mi
7:20 pm32 °FClear.6 mph100%30.45 "Hg4 mi
6:50 pm32 °FClear.7 mph100%30.45 "Hg4 mi
6:20 pm32 °FClear.7 mph100%30.45 "Hg4 mi
5:50 pm30 °FPassing clouds.7 mph100%30.45 "Hg4 mi
5:20 pm30 °FLight freezing rain. Passing clouds.5 mph100%30.45 "Hg4 mi
4:50 pm30 °FPassing clouds.7 mph100%30.45 "Hg4 mi
4:20 pm30 °FPassing clouds.8 mph100%30.45 "Hg4 mi
3:50 pm30 °FBroken clouds.7 mph100%30.45 "Hg4 mi
2:50 pm30 °FScattered clouds.8 mph100%30.45 "Hg4 mi
2:20 pm30 °FBroken clouds.6 mph100%30.45 "Hg4 mi
1:50 pm30 °FScattered clouds.7 mph100%30.45 "Hg4 mi
1:20 pm30 °FScattered clouds.7 mph100%30.45 "Hg4 mi
12:50 pm30 °FScattered clouds.9 mph100%30.48 "Hg4 mi
12:20 pm28 °FIce fog.9 mph100%30.48 "Hg3 mi
11:50 am28 °FIce fog.8 mph100%30.48 "Hg3 mi
11:20 am28 °FIce fog.8 mph100%30.48 "Hg3 mi
10:50 am28 °FIce fog.8 mph100%30.51 "Hg2 mi
10:20 am27 °FIce fog.8 mph100%30.48 "Hg2 mi
9:50 am27 °FIce fog.8 mph100%30.48 "Hg2 mi
9:20 am27 °FIce fog.8 mph100%30.48 "Hg2 mi
8:50 am27 °FIce fog.7 mph100%30.48 "Hg2 mi
8:20 am27 °FIce fog.6 mph100%30.48 "Hg2 mi
7:50 am27 °FIce fog.7 mph100%30.48 "Hg2 mi
7:20 am27 °FIce fog.8 mph100%30.48 "Hg2 mi
Weather by CustomWeather, © 2016

See weather overviewHow to use our weather pages